User: anonymous   Login
Location: Unspecified
(0.0000°N, 0.0000°E)
Time: 03:07:59
(UTC+01:00)
Language:

Delta 2 Rocket - Orbit

View from above orbital plane
View from above orbital plane
View from above satellite
View from above satellite

Ground track
Ground track

The orbit data is extracted from the following two-line orbital elements,

1 20453U 90008B   14325.48933490  .00015304  00000-0  95135-3 0  1346
2 20453 035.6290 323.6840 0317146 311.3865 045.9980 14.75615238309005
Epoch (UTC): 21 November 2014 11:44:38
Eccentricity: 0.0317146
inclination: 35.6290°
perigee height: 420 km
apogee height: 866 km
right ascension of ascending node: 323.6840°
argument of perigee: 311.3865°
revolutions per day: 14.75615238
mean anomaly at epoch: 45.9980°
orbit number at epoch: 30900

The dashed part of the orbit path shows where the satellite is in the earth's shadow,  

DLR